Regional Weather Roundup
Issued by NWS

Home | Current Version | Previous Version | Graphics & Text | Print | Product List | Glossary On
Versions: 1 2 3 4 5 6 7 8 9 10 11 12 13 14 15 16 17 18 19 20 21 22 23 24 25 26 27 28 29 30 31 32 33 34 35 36 37 38 39 40 41 42 43 44 45 46 47 48 49 50
926
ASUS43 KOAX 091302
RWRNE

WEATHER ROUNDUP FOR NEBRASKA
NATIONAL WEATHER SERVICE OMAHA NE
700 AM CST FRI DEC 09 2016

NOTES: SATELLITE DATA IS BEING USED TO AUGMENT CLOUD COVER ABOVE
       12000 FEET.
       "FAIR" INDICATES FEW OR NO CLOUDS BELOW 12,000 FEET WITH NO
       SIGNIFICANT WEATHER AND/OR OBSTRUCTIONS TO VISIBILITY.

  * THESE STATIONS DO NOT REPORT WEATHER SUCH AS RAIN...SNOW OR FOG.

NEZ001>004-019>022-054>056-091400-
NEBRASKA PANHANDLE

CITY           SKY/WX    TMP DP  RH WIND       PRES   REMARKS
SCOTTSBLUFF    CLOUDY    16   8  71 SE10      30.10F WCI   4
ALLIANCE       CLOUDY    11   4  73 S12       30.13S WCI  -3
CHADRON        CLOUDY     6   0  76 N10       30.23R WCI  -9
KIMBALL        CLOUDY    13   8  81 SW8       30.07S WCI   2
SIDNEY         CLOUDY    13   6  74 S14       30.11F WCI  -2
$$

NEZ057>060-069>072-079>082-091400-
SOUTHWEST NEBRASKA

CITY           SKY/WX    TMP DP  RH WIND       PRES   REMARKS
NORTH PLATTE   CLOUDY    13   5  70 SE9       30.34F WCI   1
IMPERIAL       CLOUDY    13   5  70 S13       30.27F WCI  -2
LEXINGTON      CLOUDY    11   5  78 SE6       30.42F WCI   1
MCCOOK         CLOUDY    10   5  80 NE3       30.39R
OGALLALA       CLOUDY    14   7  72 S15G21    30.25F WCI  -1
$$

NEZ005>010-023>029-035>040-094-091400-
NORTH CENTRAL NEBRASKA

CITY           SKY/WX    TMP DP  RH WIND       PRES   REMARKS
VALENTINE      CLOUDY     6   0  76 E8        30.38F WCI  -7
AINSWORTH      CLOUDY     7   3  84 SE7       30.39F WCI  -5
BROKEN BOW     CLOUDY     9   3  77 SE8       30.40S WCI  -3
O`NEILL        CLOUDY     6   3  87 SE5       30.49R WCI  -3
ORD            CLOUDY     7   1  76 SE5       30.47S WCI  -2
THEDFORD       CLOUDY    11   3  70 SE9       30.33F WCI  -2
$$

NEZ041-046>049-061>064-073>077-083>087-091400-
SOUTH CENTRAL NEBRASKA

CITY           SKY/WX    TMP DP  RH WIND       PRES   REMARKS
GRAND ISLAND   CLOUDY    10   6  84 SE9       30.50F WCI  -3
AURORA         CLOUDY     8   4  80 SE7       30.51F WCI  -3
HASTINGS       CLOUDY    12   4  70 SE9       30.51S WCI   0
HEBRON         CLOUDY    12   7  83 E3        30.57S
HOLDREGE       CLOUDY    13   8  78 SE3       30.44F
KEARNEY *      CLOUDY    10   3  72 SE7       30.46F WCI   0
YORK           CLOUDY     9   5  85 SE6       30.54F WCI  -1
$$

NEZ011>018-030>034-042>045-091400-
NORTHEAST NEBRASKA

CITY           SKY/WX    TMP DP  RH WIND       PRES   REMARKS
NORFOLK        CLOUDY     4   0  83 CALM      30.54F
ALBION         CLOUDY     6   1  81 SE5       30.53S WCI  -3
BLAIR          PTCLDY     6   2  86 CALM      30.58F
FREMONT        CLOUDY     6   2  84 CALM      30.60S
TEKAMAH        CLOUDY     7   2  80 NW3       30.62S
WAYNE          CLOUDY     2  -2  83 S3        30.56F
$$

NEZ050>053-065>068-078-088>093-091400-
SOUTHEAST NEBRASKA

CITY           SKY/WX    TMP DP  RH WIND       PRES   REMARKS
LINCOLN        CLOUDY     5   1  83 N3        30.61F
OMAHA EPPLEY   MOCLDY     8   2  76 N3        30.63S
BEATRICE       CLOUDY     6   2  85 CALM      30.59S
FALLS CITY     CLEAR      6   3  87 CALM      30.62F
NEBRASKA CITY  CLOUDY     8   1  74 CALM      30.61S
PLATTSMOUTH    CLOUDY     6   0  77 CALM      30.61S
$$

NEZ044-045-051>053-067-091400-
OMAHA AREA

CITY           SKY/WX    TMP DP  RH WIND       PRES   REMARKS
OMAHA EPPLEY   MOCLDY     8   2  76 N3        30.63S
BLAIR          PTCLDY     6   2  86 CALM      30.58F
FREMONT        CLOUDY     6   2  84 CALM      30.60S
MILLARD        CLOUDY    10   5  79 CALM      30.62S
OFFUTT AFB     CLOUDY     7   4  89 NW3       30.62S
PLATTSMOUTH    CLOUDY     6   0  77 CALM      30.61S
WAHOO          FAIR       5   1  83 CALM      30.60F
$$




USA.gov is the U.S. government's official web portal to all federal, state and local government web resources and services.